Flag for Micronesia Weather past 2 weeks in Kolonia, Ponape, Micronesia

Now
88 °F

Broken clouds.


Feels Like: 100 °F
Forecast: 75 / 88 °F
Wind: 9 mph from West

Location: Pohnpei

Current Time: Sep 15, 2014 at 3:28:49 PM

Latest Report: Sep 15, 2014 at 2:53 PM


Visibility: 15 mi

Pressure: 29.78 "Hg

Humidity: 70%

Dew point: 77 °F

Location of KoloniaLocation

Historic Weather in Kolonia — Graph

°F

Kolonia temperature yesterday

Maximum temperature yesterday: 90 °F (at 10:57 AM)
Minimum temperature yesterday: 75 °F (at 5:50 AM)
Average temperature yesterday: 80 °F

Past Weeks' High & Low Weather Summary

 TemperatureHumidityPressure
High92 °F (Sep 11, 10:54 AM)100% (Sep 3, 3:03 AM)29.92 "Hg (Sep 3, 3:03 AM)
Low73 °F (Sep 10, 5:52 AM)61% (Sep 14, 10:57 AM)29.73 "Hg (Sep 4, 3:52 PM)
Average81 °F87%29.84 "Hg
* Reported Aug 31 1:53 PM — Sep 15 1:52 PM, Kolonia, Weather by CustomWeather, © 2014

Note: Actual official high and low records may vary slightly from our data, if they occured in-between our weather recording intervals... More about our weather records

Advertising

Kolonia weather history for previous 24 hours

 ConditionsComfort  
Time TempWeatherWind HumidityBarometerVisibility
1:52 PM
Sep 15
90 °FBroken clouds.8 mph65%29.79 "Hg15 mi
12:54 PM91 °FScattered clouds.10 mph63%29.81 "Hg15 mi
11:51 AM89 °FScattered clouds.7 mph70%29.83 "Hg15 mi
10:58 AM85 °FBroken clouds.5 mph74%29.85 "Hg15 mi
9:50 AM87 °FBroken clouds.3 mph73%29.85 "Hg15 mi
8:54 AM87 °FBroken clouds.3 mph75%29.86 "Hg15 mi
7:50 AM81 °FPassing clouds.3 mph83%29.85 "Hg15 mi
6:52 AM75 °FPassing clouds.5 mph95%29.84 "Hg15 mi
5:52 AM74 °FPassing clouds.3 mph96%29.83 "Hg15 mi
4:52 AM74 °FPassing clouds.5 mph97%29.82 "Hg15 mi
3:53 AM74 °FPassing clouds.5 mph99%29.81 "Hg15 mi
2:52 AM75 °FPassing clouds.5 mph95%29.82 "Hg15 mi
1:51 AM75 °FPassing clouds.3 mph95%29.82 "Hg15 mi
11:50 PM
Sep 14
75 °FPartly cloudy.3 mph95%29.85 "Hg15 mi
10:50 PM76 °FPartly cloudy.3 mph96%29.86 "Hg15 mi
9:50 PM76 °FPassing clouds.3 mph96%29.86 "Hg15 mi
8:50 PM76 °FPartly cloudy.3 mph96%29.85 "Hg15 mi
7:50 PM77 °FPartly cloudy.3 mph95%29.83 "Hg15 mi
6:50 PM80 °FPartly cloudy.3 mph88%29.82 "Hg15 mi
5:50 PM81 °FPartly sunny.3 mph88%29.80 "Hg15 mi
4:50 PM81 °FPartly sunny.5 mph90%29.78 "Hg15 mi
3:54 PM83 °FMostly cloudy.6 mph82%29.78 "Hg15 mi
Weather by CustomWeather, © 2014

See weather overviewHow to use our weather pages